Content
SEND FEEDBACK

Daily
Averages
Monthly
Summary
Italy

TURIN, ITALY


Home > Europe > Italy
Elevation: 941 feet     Latitude: 45 13N     Longitude: 007 39E

WEATHER
 
SELECT A DAY
Number of Records: 304,521;   Date Range: 7/1/96 - 8/10/14
 
SHARE

PRINT THIS DATA

[ ← Previous Day ]
WEATHER ALMANAC - FEBRUARY 25, 2013
[ Next Day → ]
[ °C ]   °F
Weather ElementAverageHighLow
Temperature34.6 °F39.2 °F (4:20 pm)32 °F (12:50 am)
Dewpoint32.9 °F33.8 °F (7:20 am)32 °F (12:50 am)
Humidity93.8 %100 % (12:50 am)75 % (4:20 pm)
Barometer29.99 in30.15 in (9:50 pm)29.83 in (12:50 am)
Wind Speed5.3 mph105.9 mph (6:50 am)
Weather ElementAverage
Visibility3.5 mi
Wind DirectionESE (103 °)

Weather ElementTotal
Precipitation---
Heating Degree Days29.4 (Base 65)
Averaged from 46 records on February 25, 2013
WEATHER CONDITIONS BREAKOUT
WIND DIRECTION BREAKOUT
WEATHER BY HOUR - FEBRUARY 25, 2013
[ °C ]   °F
Local TimeTemperatureDewpointHumidityBarometerVisibilityWind DirectionWind SpeedGust SpeedPrecipitationEventsConditions
12:50 AM32.0 °F32.0 °F100 %29.83 in0.7 miCalmSnowSnow
1:20 AM32.0 °F32.0 °F100 %29.83 in0.7 miCalmSnowSnow
1:50 AM32.0 °F32.0 °F100 %29.83 in1.1 miCalmSnowLight Snow
2:20 AM32.0 °F32.0 °F100 %29.83 in1.4 miCalmSnowLight Snow
2:50 AM32.0 °F32.0 °F100 %29.86 in1.9 miCalmRain-SnowLight Rain
3:20 AM32.0 °F32.0 °F100 %29.86 in1.6 miCalmSnowLight Snow
3:50 AM32.0 °F32.0 °F100 %29.86 in1.6 miCalmSnowLight Snow
4:20 AM32.0 °F32.0 °F100 %29.86 in1.6 miCalmSnowLight Snow
4:50 AM32.0 °F32.0 °F100 %29.86 in1.0 miCalmSnowSnow
5:20 AM32.0 °F32.0 °F100 %29.89 in1.5 miVariable3.5 mphSnowLight Snow
5:50 AM32.0 °F32.0 °F100 %29.89 in1.4 miVariable3.5 mphSnowLight Snow
6:50 AM32.0 °F32.0 °F100 %29.89 in2.2 miVariable105.9 mphOvercast
7:20 AM33.8 °F33.8 °F100 %29.89 in2.2 miCalmSnowLight Snow
7:50 AM33.8 °F33.8 °F100 %29.92 in2.5 miCalmSnowLight Snow
8:20 AM33.8 °F33.8 °F100 %29.95 in1.2 miVariable2.3 mphSnowLight Snow
8:50 AM33.8 °F33.8 °F100 %29.95 in2.5 miVariable2.3 mphOvercast
9:20 AM33.8 °F33.8 °F100 %29.95 in2.5 miWNW (300°)4.6 mphLight Drizzle
9:50 AM35.6 °F33.8 °F93 %29.98 in4.3 miNNW (340°)5.8 mphLight Drizzle
10:20 AM35.6 °F33.8 °F93 %29.98 in4.3 miNNW (340°)5.8 mphOvercast
10:50 AM35.6 °F33.8 °F93 %29.98 in4.3 miNorth (350°)5.8 mphMostly Cloudy
11:20 AM35.6 °F33.8 °F93 %29.98 in4.3 miNE (40°)3.5 mphMostly Cloudy
11:50 AM35.6 °F33.8 °F93 %29.98 in2.5 miENE (70°)3.5 mphSnowLight Snow
12:20 PM35.6 °F33.8 °F93 %30.04 in0.7 miENE (70°)4.6 mphSnowSnow
12:50 PM33.8 °F32.0 °F93 %30.01 in0.3 miVariable3.5 mphSnowSnow
1:20 PM33.8 °F33.8 °F100 %30.01 in1.9 miNorth (350°)4.6 mphRain-SnowLight Rain
1:50 PM35.6 °F33.8 °F93 %30.01 in3.7 miNorth (350°)4.6 mphMostly Cloudy
2:20 PM35.6 °F33.8 °F93 %30.01 in3.7 miNorth (350°)4.6 mphMostly Cloudy
2:50 PM37.4 °F33.8 °F87 %30.01 in3.7 miNE (40°)4.6 mphMostly Cloudy
3:20 PM37.4 °F33.8 °F87 %30.04 in4.3 miNNE (20°)4.6 mphMostly Cloudy
3:50 PM37.4 °F32.0 °F81 %30.04 in5.0 miNNE (20°)4.6 mphScattered Clouds
4:20 PM39.2 °F32.0 °F75 %30.04 in5.0 miVariable2.3 mphScattered Clouds
4:50 PM39.2 °F32.0 °F75 %30.04 in6.2 miVariable2.3 mphScattered Clouds
5:20 PM39.2 °F32.0 °F75 %30.04 in5.0 miVariable2.3 mphMostly Cloudy
5:50 PM37.4 °F32.0 °F81 %30.04 in5.0 miVariable2.3 mphMostly Cloudy
6:20 PM33.8 °F32.0 °F93 %30.06 in3.1 miNE (50°)9.2 mphMostly Cloudy
6:50 PM33.8 °F32.0 °F93 %30.06 in3.7 miENE (70°)3.5 mphMostly Cloudy
7:20 PM33.8 °F33.8 °F100 %30.09 in6.2 miNNW (340°)4.6 mphMostly Cloudy
7:50 PM33.8 °F33.8 °F100 %30.09 in6.2 miVariable2.3 mphMostly Cloudy
8:20 PM35.6 °F33.8 °F93 %30.09 in6.2 miVariable2.3 mphMostly Cloudy
8:50 PM35.6 °F33.8 °F93 %30.12 in6.2 miVariable1.2 mphMostly Cloudy
9:20 PM35.6 °F33.8 °F93 %30.12 in6.2 miNNW (330°)3.5 mphMostly Cloudy
9:50 PM35.6 °F32.0 °F87 %30.15 in6.2 miNW (320°)3.5 mphMostly Cloudy
10:20 PM35.6 °F33.8 °F93 %30.15 in6.2 miWNW (300°)6.9 mphMostly Cloudy
10:50 PM35.6 °F32.0 °F87 %30.15 in6.2 miNNW (330°)5.8 mphMostly Cloudy
11:20 PM35.6 °F32.0 °F87 %30.15 in6.2 miNNE (30°)5.8 mphMostly Cloudy
11:50 PM33.8 °F33.8 °F100 %30.15 in6.2 miNNW (330°)4.6 mphMostly Cloudy
Hourly data recorded from LIMF, located miles away from Turin, Italy







STORIES FROM OUR PARTNERS